Location: ????? ????
(37.9717°N, 23.4051°E)
Time: 11:39:53
(UTC+00:00)

CZ-4B R/B - Pass Details

Date: 18 April 2024
Orbit: 807 x 882 km, 99.0° (Epoch: 18 May)

Event Time Altitude Azimuth Distance (km) Brightness Sun altitude
Rises 17:26:03 0° 143° (SE) 3,466 5.9 -4.7°
Reaches altitude 10° 17:28:35 10° 135° (SE) 2,527 5.1 -5.2°
Maximum altitude 17:33:44 38° 69° (ENE) 1,299 3.9 -6.2°
Drops below altitude 10° 17:38:51 10° 3° (N) 2,510 5.9 -7.1°
Sets 17:41:21 0° 356° (N) 3,440 6.7 -7.6°
